Location: Eaton Estates
(41.3089°N, 82.0057°W)
Time: 08:45:58
(UTC+00:00)

SL-14 R/B - Pass Details

Date: 17 June 2021
Orbit: 517 x 554 km, 82.4° (Epoch: 27 July)

Event Time Altitude Azimuth Distance (km) Brightness Sun altitude
Exits shadow 03:38:19 44° 209° (SSW) 769 3.7 -20.4°
Maximum altitude 03:39:28 71° 279° (W) 591 3.5 -20.5°
Drops below altitude 10° 03:43:30 10° 3° (N) 1,839 6.8 -20.8°
Sets 03:45:41 0° 6° (N) 2,734 7.8 -21.0°
